Dewpoint
62 49 51 50 36 42 40 41 38 29 23 24 37 38 37 46 38 29 53 56 56 55 55 62 65 61 59 59 61 61 58 63 62 61 60 60 63 62 62 62 63 62 59 63 65 64 64 65 60
52 47 46 47 34 25 32 39 33 30 27 44 34 40 42 44 49 52 54 56 55 54 56 59 65 61 59 61 59 58 62 60 59 61 61 59 61 62 62 62 62 61 60 62 63 63 63 64 62
48 41 39 40 37 27 33 34 29 26 33 24 36 43 45 46 50 53 53 55 54 55 57 58 64 63 64 62 60 59 60 60 58 58 59 60 57 60 61 59 60 59 58 59 61 61 62 63 62
40 39 36 33 34 35 35 34 28 24 24 25 35 37 45 49 50 54 55 54 55 56 58 61 65 62 63 63 62 61 60 60 60 60 57 57 59 58 58 58 58 58 58 57 57 59 59 58 61
43 37 32 32 30 31 32 33 28 23 26 26 31 33 43 49 51 54 54 54 55 56 58 63 62 61 62 59 59 62 61 57 57 57 60 58 56 57 56 56 56 56 56 57 57 56 57 57 57
39 36 30 27 30 33 35 32 27 30 25 27 34 40 43 49 53 54 54 54 55 56 57 59 61 61 60 60 60 60 60 57 57 59 57 55 55 55 54 53 53 54 54 54 53 54 55 54 54
39 35 32 33 33 33 33 32 30 28 22 21 36 32 42 47 52 54 54 54 56 56 56 58 57 59 62 60 60 59 58 58 58 56 56 53 52 51 51 52 52 52 52 53 51 50 51 50 50
43 39 36 35 33 32 35 34 32 26 25 38 40 26 36 46 53 53 53 54 55 56 57 57 58 55 58 60 60 59 58 58 57 56 56 52 51 51 50 51 50 50 49 49 50 47 43 44 45
42 37 34 35 34 33 35 32 31 30 27 31 35 38 42 50 53 52 52 52 53 55 56 57 57 57 57 57 58 58 58 57 57 56 55 51 47 45 47 49 48 47 47 47 45 44 44 47 50
40 34 32 36 38 32 36 35 36 29 29 31 36 44 48 50 52 52 51 51 52 54 55 56 56 56 56 56 56 56 56 56 54 52 50 48 47 45 45 49 52 48 49 47 45 46 52 48 41
39 34 38 38 36 37 37 35 36 29 28 28 31 42 47 49 51 51 52 52 52 54 55 56 56 56 56 55 56 56 56 54 53 51 49 46 45 44 45 48 47 44 48 45 43 43 43 42 40
21 30 35 34 30 25 34 36 34 34 34 36 35 44 46 48 49 51 51 52 52 53 55 56 56 56 55 55 56 55 55 54 53 52 50 49 47 46 45 45 45 41 42 44 42 41 41 39 39
22 22 24 25 25 25 25 27 35 34 34 36 43 45 46 46 47 49 51 52 53 53 55 55 55 55 55 54 55 54 54 54 53 52 51 50 49 47 46 44 40 39 42 42 42 40 39 38 37
19 21 21 19 21 23 24 23 30 26 30 36 42 43 45 45 46 46 47 49 53 54 55 55 55 55 55 54 53 54 53 54 53 52 52 51 50 49 45 42 40 40 41 41 40 38 39 38 37
23 16 18 20 22 20 23 19 23 23 21 22 37 41 44 44 44 45 46 46 49 53 55 55 55 55 54 54 54 54 54 54 53 53 52 51 51 49 44 41 41 40 39 39 39 38 39 39 39
18 17 15 15 22 22 21 18 21 22 21 21 21 22 38 43 44 44 44 45 45 49 53 55 55 54 54 54 54 54 54 53 53 52 51 51 50 49 46 43 42 42 40 39 39 39 39 40 41
17 15 15 11 17 21 21 18 21 23 24 24 25 25 21 25 41 44 44 44 45 46 49 53 54 54 54 53 53 53 53 52 53 52 51 50 49 48 45 44 43 42 41 41 40 40 41 40 40
20 19 17 12 13 17 14 18 22 23 24 25 26 27 28 21 25 37 43 44 44 44 45 48 53 54 53 53 52 51 51 51 51 51 50 49 48 46 44 44 43 42 42 41 41 40 42 41 41
18 19 15 15 18 16 17 20 21 23 26 27 29 30 31 31 31 31 29 43 44 44 43 43 47 51 52 50 49 48 50 49 49 49 49 48 46 45 44 43 43 42 42 41 41 42 41 41 43
17 20 15 15 19 18 19 19 20 23 25 28 29 31 33 34 35 35 34 38 42 43 43 43 44 48 51 51 50 49 48 48 48 48 48 47 46 45 44 43 43 43 42 42 41 42 41 41 43
13 14 11 13 15 17 20 19 19 22 28 31 32 33 34 35 35 35 35 36 36 39 43 43 43 47 48 49 48 48 48 48 47 48 48 48 47 46 45 44 43 43 43 43 42 42 42 40 42
15 16 20 19 14 8 19 11 21 23 28 30 32 33 34 34 34 34 34 35 39 38 40 44 44 47 47 48 48 47 47 47 47 47 48 48 48 47 47 46 44 44 44 43 43 42 42 42 41
17 23 20 20 16 19 16 14 19 20 27 30 32 33 33 33 32 31 32 33 35 40 41 44 46 48 48 48 48 47 47 48 48 48 48 48 48 48 48 47 46 45 44 44 44 43 42 43 42
22 21 23 23 19 12 14 15 16 19 26 31 32 31 31 31 29 28 29 29 32 34 39 44 46 47 48 49 48 48 47 46 47 47 47 48 48 49 48 48 47 46 45 45 44 44 43 43 43
21 17 14 15 16 15 18 16 20 26 30 32 31 30 30 29 27 26 26 26 27 30 32 35 40 42 46 48 48 48 48 47 47 47 47 47 47 48 48 48 48 47 46 46 45 44 44 43 43
20 16 13 7 10 12 17 16 22 30 32 32 31 30 28 27 26 26 26 25 25 27 29 31 32 35 39 40 43 46 48 48 48 48 47 48 48 48 48 48 48 48 47 46 46 45 45 44 44
18 17 17 14 15 13 17 22 28 31 30 30 28 28 28 27 26 25 24 25 26 26 27 30 30 30 32 38 38 38 42 45 47 47 48 48 48 48 48 48 48 48 48 47 46 46 45 45 44
21 19 18 18 8 8 14 20 22 29 28 28 26 26 26 26 25 25 24 24 25 26 26 27 29 29 30 32 36 37 37 39 44 46 47 47 48 48 48 48 48 48 48 48 46 46 45 45 45
21 16 18 18 19 15 12 17 26 27 28 26 25 25 25 25 25 24 23 24 24 25 26 26 27 29 29 31 32 35 37 36 35 37 41 44 48 48 48 48 48 48 48 48 47 46 46 45 45
23 24 22 18 15 18 17 20 25 24 26 25 24 24 24 24 24 24 23 23 23 23 25 26 26 28 29 30 31 31 34 36 33 34 35 38 40 45 48 49 49 49 49 48 47 47 46 46 45
Lifted_Index
8 9 9 8 8 7 6 5 5 5 5 6 7 8 8 7 7 7 8 10 10 10 9 7 7 8 10 10 10 10 10 9 10 10 10 10 9 9 9 9 9 10 10 9 8 7 7 7 7
9 9 9 8 7 7 6 5 5 5 6 6 7 8 8 7 7 7 8 9 10 10 9 7 7 8 9 9 10 10 10 10 10 10 10 10 10 9 9 9 9 10 10 9 8 8 7 7 7
9 9 8 8 7 7 6 5 5 5 6 7 7 8 8 7 7 8 8 9 9 9 8 7 7 7 8 8 9 9 10 10 10 10 10 10 10 10 9 10 10 10 10 10 9 8 8 8 7
9 9 9 8 7 7 6 5 5 5 6 7 7 8 8 8 8 8 8 8 9 8 8 7 6 7 7 8 8 9 10 10 10 10 10 10 10 10 10 10 10 10 10 10 10 9 9 9 8
9 9 8 7 7 7 7 6 5 5 6 7 7 8 8 8 8 8 8 8 8 8 7 6 6 7 8 8 9 9 9 10 10 10 10 10 10 10 11 11 11 11 11 10 10 10 10 10 10
9 9 8 7 7 8 7 7 6 5 6 7 7 7 8 8 8 8 8 8 8 7 6 6 7 7 8 8 9 9 9 10 10 10 10 11 11 11 12 12 11 11 11 11 11 11 11 12 12
8 8 8 8 7 7 7 7 6 6 6 6 7 7 7 7 7 7 7 8 8 7 6 6 7 7 7 8 8 9 9 9 10 10 10 11 12 12 12 12 12 12 12 12 12 13 13 14 14
7 8 8 7 7 7 6 6 6 6 6 6 6 6 6 6 6 7 7 8 8 7 6 6 7 7 7 7 8 8 8 9 9 9 10 11 12 13 13 12 12 12 13 13 13 14 15 16 16
7 7 7 7 6 6 6 6 6 6 5 5 5 5 5 5 6 6 7 7 7 7 6 6 6 7 7 7 7 7 8 8 9 9 10 11 13 13 13 13 13 13 13 13 14 15 16 16 16
7 7 6 6 6 6 6 5 5 5 5 4 4 4 4 4 5 5 6 7 7 7 6 6 6 6 6 6 6 6 7 7 8 9 10 11 13 14 14 14 13 13 13 14 15 15 15 16 17
7 7 6 6 6 6 5 5 5 5 4 4 4 3 3 3 3 4 6 6 7 6 6 5 5 5 5 5 6 6 6 7 7 9 10 12 13 14 15 14 14 14 14 14 15 15 16 17 18
8 8 7 6 6 6 5 5 5 4 5 4 4 3 2 2 3 4 4 5 6 6 6 5 5 5 5 5 5 5 6 6 7 8 10 12 13 14 14 14 15 15 15 16 16 16 17 17 18
9 9 9 8 7 7 6 6 6 6 6 5 4 3 3 3 3 3 4 4 5 6 6 5 5 5 5 5 5 5 6 6 7 8 9 11 12 13 13 14 15 16 16 16 16 16 16 17 17
9 9 9 9 8 8 7 7 8 8 7 6 5 5 4 3 3 3 3 4 4 5 6 6 5 5 5 6 6 6 6 6 7 7 8 10 11 12 12 14 15 15 16 16 16 16 16 16 16
9 9 8 8 8 8 8 8 8 8 8 7 6 6 5 5 4 4 4 4 4 5 6 6 6 5 5 6 6 6 6 6 7 7 8 9 10 11 12 13 14 15 16 16 16 16 16 16 16
8 8 8 8 8 8 8 8 8 8 8 7 7 6 6 6 5 5 4 4 4 5 5 6 6 6 6 6 6 6 6 6 6 7 8 9 10 10 11 12 14 15 15 16 16 16 15 15 15
7 7 7 8 8 9 8 8 8 8 8 7 7 7 6 6 6 6 5 5 4 5 5 6 6 6 6 6 5 6 6 6 6 7 8 9 9 10 11 12 14 15 15 15 16 16 15 15 15
6 6 6 7 8 9 8 8 8 8 8 7 7 7 7 7 7 7 6 5 5 5 5 5 6 6 6 6 6 6 6 6 6 6 7 8 9 10 11 12 14 15 15 15 15 15 15 15 15
7 6 6 7 8 8 8 8 8 8 8 8 8 8 7 7 7 7 7 6 6 5 5 5 5 6 6 6 6 6 6 6 6 6 7 8 9 10 11 12 13 15 15 15 15 15 15 15 15
7 6 6 7 9 9 8 8 8 8 8 9 9 9 8 8 8 8 8 7 7 7 6 6 6 5 6 6 6 6 6 6 6 7 7 8 9 10 11 12 13 14 15 15 15 16 15 15 15
6 6 6 7 8 8 7 7 7 8 9 9 10 10 9 9 9 9 8 8 8 8 7 7 6 5 5 6 6 6 7 7 7 7 8 9 9 10 10 11 12 13 14 14 15 15 15 15 15
6 6 6 6 6 6 6 5 6 8 9 9 10 10 10 10 10 10 9 9 9 9 8 8 6 6 5 5 6 7 7 7 7 8 8 9 9 10 10 11 11 12 13 13 14 14 15 15 15
6 7 7 6 5 4 4 4 6 8 9 9 10 10 10 10 10 10 10 10 9 9 9 8 7 6 6 6 6 7 7 7 7 8 8 8 9 9 10 10 11 12 12 13 13 13 14 15 15
7 6 5 4 3 3 4 4 5 7 9 10 10 10 10 10 10 10 10 10 10 9 9 8 7 7 6 6 7 7 7 7 8 8 8 8 8 9 9 10 10 11 11 12 12 12 13 13 14
7 5 3 2 2 2 4 4 5 7 9 10 10 10 10 10 10 10 10 10 10 10 9 8 8 7 7 7 7 7 7 8 8 8 8 8 8 8 9 9 9 10 10 11 11 11 12 12 12
6 5 3 2 1 2 4 4 6 8 9 10 10 10 10 10 10 10 10 10 10 10 10 9 8 8 8 8 8 8 8 8 8 8 8 8 8 8 8 9 9 9 10 10 10 10 11 11 11
6 5 4 3 2 2 3 4 6 8 8 9 9 9 9 10 10 10 11 11 11 11 11 10 10 9 9 9 9 9 9 9 9 8 9 9 9 9 9 9 9 9 9 9 9 10 10 10 10
6 6 5 4 2 1 2 3 5 7 7 8 8 9 9 9 10 10 11 12 12 12 12 12 11 11 11 11 11 11 11 11 10 10 10 10 10 9 9 9 9 9 9 9 9 9 9 10 10
6 6 5 4 3 2 2 3 5 6 7 7 8 8 9 9 10 10 11 11 12 13 13 13 13 12 12 12 12 13 13 13 12 12 11 11 11 10 10 10 10 9 9 9 9 9 9 9 9
6 6 5 4 3 3 2 3 5 6 7 7 8 8 9 10 10 10 10 11 11 12 12 13 13 13 14 14 14 14 14 14 13 13 13 12 11 11 11 11 10 10 10 10 9 9 9 9 9